Miscellaneous Local Product
Issued by NWS Hastings, NE

Home | Current Version | Previous Version | Text Only | Print | Product List | Glossary On
Versions: 1 2 3 4 5 6 7 8 9 10 11 12 13 14 15 16 17 18 19 20 21 22 23 24 25 26 27 28 29 30 31 32 33 34 35 36 37 38 39 40 41 42 43 44 45 46 47 48 49 50
000
AXUS43 KGID 232302
MISGRI

GID CWA HOURLY WEATHER ROUNDUP
NATIONAL WEATHER SERVICE HASTINGS NE
600 PM CDT TUE SEP 23 2014

NOTE: "FAIR" INDICATES FEW OR NO CLOUDS BELOW 12,000 FEET WITH NO
SIGNIFICANT WEATHER AND/OR OBSTRUCTIONS TO VISIBILITY.

...SOUTH CENTRAL NEBRASKA...

CITY           SKY/WX    TMP DP  RH WIND       PRES   REMARKS
GRAND ISLAND   CLOUDY    67  57  70 SE13      30.02R
HASTINGS       PTSUNNY   68  55  63 SE16      30.01S
KEARNEY        MOSUNNY   72  57  60 SE13      29.99F
ORD            MOSUNNY   69  58  67 SE12      29.96S
YORK           PTSUNNY   64  57  77 S18G25    30.04S
AURORA         CLOUDY    66  55  68 S17       30.02S
LEXINGTON      MOSUNNY   77  63  61 SE13      29.95F
HOLDREGE       SUNNY     74  57  55 SE14G23   29.97F
HEBRON         CLOUDY    65  57  74 SE17      30.04F

...NEBRASKA PANHANDLE...

CITY           SKY/WX    TMP DP  RH WIND       PRES   REMARKS
CHADRON        CLOUDY    77  52  41 N3        29.95S
ALLIANCE       PTSUNNY   81  48  31 N13       29.98R
SCOTTSBLUFF    MOSUNNY   83  44  25 NW7       30.00S
SIDNEY         MOSUNNY   78  42  27 NW10      30.03S

...WESTERN AND NORTH CENTRAL NEBRASKA...

CITY           SKY/WX    TMP DP  RH WIND       PRES   REMARKS
VALENTINE      MOSUNNY   77  57  50 SE3       29.90S
AINSWORTH      PTSUNNY   70  63  79 E5        29.91S
ONEILL         CLOUDY    66  60  79 SE14G20   29.96F
BROKEN BOW     MOSUNNY   75  60  59 S16G25    29.93F
IMPERIAL       MOSUNNY   84  41  21 W15       29.96S
NORTH PLATTE   MOSUNNY   82  53  36 SW7       29.91F
MCCOOK         MOSUNNY   83  57  41 S5        29.94F

...EASTERN NEBRASKA...

CITY           SKY/WX    TMP DP  RH WIND       PRES   REMARKS
NORFOLK        CLOUDY    65  57  75 SE20G26   30.03R
SO SIOUX CITY  CLOUDY    67  58  72 SE8       30.05S
TEKAMAH        CLOUDY    68  56  65 S18G25    30.07R
COLUMBUS       CLOUDY    63  55  77 S12       30.06R
ALBION         CLOUDY    65  55  69 S16G23    30.01S
OMAHA EPPLEY   PTSUNNY   68  49  50 S28G33    30.10R
OFFUTT AFB     PTSUNNY   67  57  69 S18G26    30.11R
MILLARD        CLOUDY    67  53  61 S15G25    30.10R
LINCOLN        CLOUDY    62  52  69 SE16      30.09S
NEBRASKA CITY  RAIN      60  55  82 S6        30.13F
BEATRICE       CLOUDY    60  56  87 SE13G18   30.09S
FALLS CITY     LGT RAIN  65  59  81 CALM      30.15R

...NORTHERN KANSAS...

CITY           SKY/WX    TMP DP  RH WIND       PRES   REMARKS
GOODLAND       PTSUNNY   79  57  46 CALM      30.04R
HILL CITY      SUNNY     85  63  47 S9        29.95F
NORTON         CLEAR     81  54  39 SE9       29.94F
PHILLIPSBURG   SUNNY     79  59  50 SE12G18   29.95F
SMITH CENTER   SUNNY     72  61  68 E17       29.98F
BELOIT         SUNNY     72  61  68 E13       29.99F
RUSSELL        MOSUNNY   76  58  53 SE15      29.97S
CONCORDIA      CLOUDY    66  61  84 SE16      30.03F
SALINA         CLOUDY    75  58  55 SE15      30.02F
TOPEKA         LGT RAIN  74  54  49 SE8       30.12R



USA.gov is the U.S. government's official web portal to all federal, state and local government web resources and services.